AirNav   Air Wisconsin pilot careers
 
 1538 users online  

6MA8 Acushnet River Seaplane Base
New Bedford, Massachusetts, USA

GOING TO NEW BEDFORD?


FAA INFORMATION EFFECTIVE 04 JANUARY 2018

Location

FAA Identifier: 6MA8
Lat/Long: 41-38-50.3740N / 070-55-03.1370W
41-38.839567N / 070-55.052283W
41.6473261 / -70.9175381
(estimated)
Elevation: 0 ft. / 0 m (estimated)
Variation: 16W (1990)
From city: 1 mile NE of NEW BEDFORD, MA
Time zone: UTC -5 (UTC -4 during Daylight Saving Time)
Zip code: 02746

Seaplane Base Operations

Seaplane Base use: Private use. Permission required prior to landing
Activation date: 02/1992
Control tower: no
ARTCC: BOSTON CENTER
FSS: BRIDGEPORT FLIGHT SERVICE STATION
Attendance: UNATNDD
Segmented circle: no

Seaplane Base Communications

WX ASOS at EWB (2.5 nm NW): PHONE 508-992-0195
WX ASOS at TAN (14 nm N): 132.675 (508-824-5005)
WX ASOS at UUU (18 nm SW): 132.075 (401-846-5910)
WX ASOS at PYM (18 nm NE): 135.625 (508-746-8003)

Nearby radio navigation aids

VOR radial/distance  VOR name  Freq  Var
MVYr333/20.4MARTHAS VINEYARD VOR/DME114.5015W
PVDr115/23.4PROVIDENCE VOR/DME115.6014W

 
NDB name  Hdg/Dist  Freq  Var  ID
TAUNTON178/14.422716WTAN - .- -.
MARSHFIELD218/29.136816WIMR .. -- .-.

Seaplane Base Services

Runway Information

Runway 2/20

Dimensions: 3500 x 200 ft. / 1067 x 61 m
Surface: water
RUNWAY 2  RUNWAY 20
Traffic pattern: leftleft

Runway 16/34

Dimensions: 3500 x 200 ft. / 1067 x 61 m
Surface: water
RUNWAY 16  RUNWAY 34
Traffic pattern: leftleft

Seaplane Base Ownership and Management from official FAA records

Ownership: Privately-owned
Owner: ISLAND SHUTTLE, INC.
123 R PURCHASE ST
MIDDLEBORO, MA 02346
Phone 508-947-9339
Manager: GID ALAN FISHER
123 R PURCHASE ST
MIDDLEBORO, MA 02346
Phone 508-947-9339

Instrument Procedures

There are no published instrument procedures at 6MA8.

Some nearby airports with instrument procedures:

KEWB - New Bedford Regional Airport (3 nm NW)
KTAN - Taunton Municipal Airport - King Field (14 nm N)
KFMH - Cape Cod Coast Guard Air Station (18 nm E)
KUUU - Newport State Airport (18 nm SW)
KPYM - Plymouth Municipal Airport (18 nm NE)
 
Loc | Ops | Rwys | IFR | FBO | Links
Com | Nav | Svcs | Stats | Notes


 
Area around 6MA8 (Acushnet River Seaplane Base)
 
Road maps at: MapQuest Bing Google
 
Aerial photo
No photo
 
Sectional chart

 
Airport distance calculator
Flying to Acushnet River Seaplane Base? Find the distance to fly.

From to 6MA8

Sunrise and sunset
Times for 22-Jan-2018
 Local
(UTC-5)
 Zulu
(UTC)
Morning civil twilight06:3511:35
Sunrise07:0512:05
Sunset16:4521:45
Evening civil twilight17:1522:15

Current date and time
Zulu (UTC)  22-Jan-2018 18:38:55
Local (UTC-5)  22-Jan-2018 13:38:55
 
METAR
KEWB 
3nm NW 
221812Z 10006KT 2SM BR OVC003 03/03 A3022 RMK AO2 P0001 T00330033
KTAN 
15nm N 
221817Z AUTO 35003KT 3SM BR OVC005 04/03 A3024 RMK AO2 T00390033 $
KUUU 
18nm W 
221753Z AUTO 08007KT 4SM BR OVC022 04/03 A3020 RMK AO2 SLP228 60001 T00440033 10044 20028 58021
KFMH 
18nm E 
221815Z AUTO 07004KT 1SM BR OVC003 03/03 A3025 RMK AO2
KPYM 
18nm NE 
221817Z AUTO 01005KT 6SM BR BKN004 BKN019 OVC055 04/03 A3024 RMK AO2 RAE1753 CIG 003V009 P0000 T00440028
TAF
KFMH 
18nm E 
221742Z 2218/2318 07004KT 1/2SM FG OVC002 FM230100 11010KT 1SM -SHRA OVC004 FM230300 13011KT 1SM BR OVC003 FM231000 17012KT 3SM BR OVC008 WS020/20040KT FM231500 17018G29KT 2SM +RA OVC008 WS020/19050KT
NOTAMs
Click for the latest NOTAMs
NOTAMs are issued by the DoD/FAA and will open in a separate window not controlled by AirNav.

 

 
 

Would you like to see your business listed on this page?

 If your business provides an interesting product or service to pilots, flight crews, aircraft, or users of the Acushnet River Seaplane Base, you should consider listing it here.  To start the listing process, click on the button below
 
Add a business
 

Other Pages about Acushnet River Seaplane Base

Update a link
 
Copyright © AirNav, LLC. All rights reserved. Privacy Policy  Contact